Time,TemperatureF,DewpointF,PressureIn,WindDirection,WindDirectionDegrees,WindSpeedMPH,WindSpeedGustMPH,Humidity,HourlyPrecipIn,Conditions,Clouds,dailyrainin,SolarRadiationWatts/m^2,SoftwareType,DateUTC
2013-02-21 00:00:00,23.0,7.5,30.27,ENE,69,7.0,9.0,51,0.00,,,0.00,0,Wunderground v.1.15,2013-02-21 06:00:00,
2013-02-21 00:10:00,23.0,7.5,30.29,ESE,104,6.0,7.0,51,0.00,,,0.00,0,Wunderground v.1.15,2013-02-21 06:10:00,
2013-02-21 00:20:00,22.9,7.0,30.29,East,86,7.0,9.0,50,0.00,,,0.00,0,Wunderground v.1.15,2013-02-21 06:20:00,
2013-02-21 00:30:00,22.9,7.4,30.28,ENE,78,5.0,5.0,51,0.00,,,0.00,0,Wunderground v.1.15,2013-02-21 06:30:00,
2013-02-21 00:40:00,22.9,7.0,30.28,East,96,5.0,5.0,50,0.00,,,0.00,0,Wunderground v.1.15,2013-02-21 06:40:00,
2013-02-21 00:50:00,22.9,7.0,30.28,East,98,6.0,6.0,50,0.00,,,0.00,0,Wunderground v.1.15,2013-02-21 06:50:00,
2013-02-21 01:00:00,22.9,7.4,30.30,East,89,4.0,4.0,51,0.00,,,0.00,0,Wunderground v.1.15,2013-02-21 07:00:00,
2013-02-21 01:10:00,23.0,7.5,30.30,East,101,5.0,5.0,51,0.00,,,0.00,0,Wunderground v.1.15,2013-02-21 07:10:00,
2013-02-21 01:20:00,23.0,7.5,30.30,East,94,4.0,4.0,51,0.00,,,0.00,0,Wunderground v.1.15,2013-02-21 07:20:00,
2013-02-21 01:30:00,22.9,7.4,30.28,ENE,78,4.0,4.0,51,0.00,,,0.00,0,Wunderground v.1.15,2013-02-21 07:30:00,
2013-02-21 01:40:00,22.9,7.4,30.27,East,81,4.0,5.0,51,0.00,,,0.00,0,Wunderground v.1.15,2013-02-21 07:40:00,
2013-02-21 01:50:00,22.9,7.9,30.27,ENE,77,5.0,5.0,52,0.00,,,0.00,0,Wunderground v.1.15,2013-02-21 07:50:00,
2013-02-21 02:00:00,22.7,7.3,30.26,East,79,6.0,6.0,51,0.00,,,0.00,0,Wunderground v.1.15,2013-02-21 08:00:00,
2013-02-21 02:10:00,22.5,7.5,30.25,East,84,7.0,9.0,52,0.00,,,0.00,0,Wunderground v.1.15,2013-02-21 08:10:00,
2013-02-21 02:20:00,22.4,7.4,30.25,East,84,5.0,5.0,52,0.00,,,0.00,0,Wunderground v.1.15,2013-02-21 08:20:00,
2013-02-21 02:30:00,22.1,7.1,30.25,East,94,2.0,2.0,52,0.00,,,0.00,0,Wunderground v.1.15,2013-02-21 08:30:00,
2013-02-21 02:40:00,22.1,7.1,30.23,ENE,76,3.0,3.0,52,0.00,,,0.00,0,Wunderground v.1.15,2013-02-21 08:40:00,
2013-02-21 02:50:00,22.1,8.0,30.23,ENE,77,4.0,5.0,54,0.00,,,0.00,0,Wunderground v.1.15,2013-02-21 08:50:00,
2013-02-21 03:00:00,22.2,8.1,30.23,ENE,78,5.0,6.0,54,0.00,,,0.00,0,Wunderground v.1.15,2013-02-21 09:00:00,
2013-02-21 03:10:00,22.2,8.1,30.20,ENE,65,7.0,7.0,54,0.00,,,0.00,0,Wunderground v.1.15,2013-02-21 09:10:00,
2013-02-21 03:20:00,22.2,8.5,30.20,ENE,60,8.0,10.0,55,0.00,,,0.00,0,Wunderground v.1.15,2013-02-21 09:20:00,
2013-02-21 03:30:00,22.1,8.4,30.18,ENE,68,10.0,10.0,55,0.00,,,0.00,0,Wunderground v.1.15,2013-02-21 09:30:00,
2013-02-21 03:40:00,22.2,8.9,30.18,ENE,69,9.0,10.0,56,0.00,,,0.00,0,Wunderground v.1.15,2013-02-21 09:40:00,
2013-02-21 03:50:00,22.1,8.4,30.18,East,87,8.0,13.0,55,0.00,,,0.00,0,Wunderground v.1.15,2013-02-21 09:50:00,
2013-02-21 04:00:00,22.1,8.8,30.21,East,85,6.0,6.0,56,0.00,,,0.00,0,Wunderground v.1.15,2013-02-21 10:00:00,
2013-02-21 04:10:00,22.1,8.8,30.20,ENE,64,5.0,5.0,56,0.00,,,0.00,0,Wunderground v.1.15,2013-02-21 10:10:00,
2013-02-21 04:20:00,21.9,8.6,30.20,ENE,67,9.0,10.0,56,0.00,,,0.00,0,Wunderground v.1.15,2013-02-21 10:20:00,
2013-02-21 04:30:00,21.9,8.6,30.18,ENE,69,10.0,11.0,56,0.00,,,0.00,0,Wunderground v.1.15,2013-02-21 10:30:00,
2013-02-21 04:40:00,22.1,9.2,30.16,ENE,74,12.0,12.0,57,0.00,,,0.00,0,Wunderground v.1.15,2013-02-21 10:40:00,
2013-02-21 04:50:00,22.1,9.6,30.16,East,82,10.0,10.0,58,0.00,,,0.00,0,Wunderground v.1.15,2013-02-21 10:50:00,
2013-02-21 05:00:00,21.9,9.4,30.15,ENE,61,11.0,15.0,58,0.00,,,0.00,0,Wunderground v.1.15,2013-02-21 11:00:00,
2013-02-21 05:10:00,21.9,9.0,30.14,ENE,77,9.0,9.0,57,0.00,,,0.00,0,Wunderground v.1.15,2013-02-21 11:10:00,
2013-02-21 05:20:00,21.9,9.0,30.14,East,92,7.0,10.0,57,0.00,,,0.00,0,Wunderground v.1.15,2013-02-21 11:20:00,
2013-02-21 05:30:00,21.9,8.6,30.16,ENE,73,9.0,9.0,56,0.00,,,0.00,0,Wunderground v.1.15,2013-02-21 11:30:00,
2013-02-21 05:40:00,22.1,9.2,30.16,East,81,6.0,8.0,57,0.00,,,0.00,0,Wunderground v.1.15,2013-02-21 11:40:00,
2013-02-21 05:50:00,21.9,8.6,30.16,East,80,9.0,11.0,56,0.00,,,0.00,0,Wunderground v.1.15,2013-02-21 11:50:00,
2013-02-21 06:00:00,21.9,8.6,30.17,ENE,76,8.0,12.0,56,0.00,,,0.00,0,Wunderground v.1.15,2013-02-21 12:00:00,
2013-02-21 06:10:00,21.9,9.0,30.17,East,86,9.0,9.0,57,0.00,,,0.00,0,Wunderground v.1.15,2013-02-21 12:10:00,
2013-02-21 06:20:00,22.1,9.6,30.17,ENE,74,8.0,8.0,58,0.00,,,0.00,0,Wunderground v.1.15,2013-02-21 12:20:00,
2013-02-21 06:30:00,22.1,9.6,30.16,ENE,76,9.0,14.0,58,0.00,,,0.00,0,Wunderground v.1.15,2013-02-21 12:30:00,
2013-02-21 06:40:00,22.1,9.6,30.15,East,84,11.0,11.0,58,0.00,,,0.00,0,Wunderground v.1.15,2013-02-21 12:40:00,
2013-02-21 06:50:00,22.2,10.4,30.15,ENE,63,8.0,8.0,60,0.00,,,0.00,0,Wunderground v.1.15,2013-02-21 12:50:00,
2013-02-21 07:00:00,22.1,9.9,30.16,East,90,8.0,9.0,59,0.00,,,0.00,0,Wunderground v.1.15,2013-02-21 13:00:00,
2013-02-21 07:10:00,21.9,9.7,30.16,ENE,77,10.0,11.0,59,0.00,,,0.00,0,Wunderground v.1.15,2013-02-21 13:10:00,
2013-02-21 07:20:00,21.9,10.1,30.16,East,81,10.0,11.0,60,0.00,,,0.00,0,Wunderground v.1.15,2013-02-21 13:20:00,
2013-02-21 07:30:00,22.1,10.7,30.14,East,79,12.0,15.0,61,0.00,,,0.00,0,Wunderground v.1.15,2013-02-21 13:30:00,
2013-02-21 07:40:00,21.9,10.5,30.13,East,82,12.0,12.0,61,0.00,,,0.00,7,Wunderground v.1.15,2013-02-21 13:40:00,
2013-02-21 07:50:00,21.9,10.5,30.13,ENE,75,10.0,12.0,61,0.00,,,0.00,11,Wunderground v.1.15,2013-02-21 13:50:00,
2013-02-21 08:00:00,21.9,10.9,30.13,ENE,65,10.0,10.0,62,0.00,,,0.00,16,Wunderground v.1.15,2013-02-21 14:00:00,
2013-02-21 08:10:00,22.1,11.1,30.14,ENE,77,8.0,8.0,62,0.00,,,0.00,23,Wunderground v.1.15,2013-02-21 14:10:00,
2013-02-21 08:20:00,22.2,11.1,30.14,East,100,8.0,8.0,62,0.00,,,0.00,21,Wunderground v.1.15,2013-02-21 14:20:00,
2013-02-21 08:30:00,22.4,11.3,30.17,ENE,69,4.0,4.0,62,0.00,,,0.00,23,Wunderground v.1.15,2013-02-21 14:30:00,
2013-02-21 08:40:00,22.4,11.0,30.18,East,92,6.0,6.0,61,0.00,,,0.00,32,Wunderground v.1.15,2013-02-21 14:40:00,
2013-02-21 08:50:00,22.4,11.3,30.18,ENE,62,8.0,13.0,62,0.00,,,0.00,35,Wunderground v.1.15,2013-02-21 14:50:00,
2013-02-21 09:00:00,22.4,11.3,30.17,East,86,11.0,11.0,62,0.00,,,0.00,44,Wunderground v.1.15,2013-02-21 15:00:00,
2013-02-21 09:10:00,22.5,11.4,30.15,ENE,59,11.0,11.0,62,0.00,,,0.00,60,Wunderground v.1.15,2013-02-21 15:10:00,
2013-02-21 09:20:00,22.7,12.0,30.15,ENE,61,11.0,11.0,63,0.00,,,0.00,65,Wunderground v.1.15,2013-02-21 15:20:00,
2013-02-21 09:30:00,22.9,11.4,30.15,ENE,61,10.0,10.0,61,0.00,,,0.00,62,Wunderground v.1.15,2013-02-21 15:30:00,
2013-02-21 09:40:00,23.2,12.1,30.14,ENE,76,10.0,10.0,62,0.00,,,0.00,67,Wunderground v.1.15,2013-02-21 15:40:00,
2013-02-21 09:50:00,23.3,12.2,30.14,East,82,11.0,11.0,62,0.00,,,0.00,76,Wunderground v.1.15,2013-02-21 15:50:00,
2013-02-21 10:00:00,23.3,11.4,30.12,ENE,78,11.0,11.0,60,0.00,,,0.00,88,Wunderground v.1.15,2013-02-21 16:00:00,
2013-02-21 10:10:00,23.9,12.0,30.11,ENE,74,10.0,10.0,60,0.00,,,0.00,162,Wunderground v.1.15,2013-02-21 16:10:00,
2013-02-21 10:20:00,24.4,11.7,30.11,ENE,65,10.0,14.0,58,0.00,,,0.00,134,Wunderground v.1.15,2013-02-21 16:20:00,
2013-02-21 10:30:00,24.8,11.3,30.10,East,95,12.0,12.0,56,0.00,,,0.00,171,Wunderground v.1.15,2013-02-21 16:30:00,
2013-02-21 10:40:00,25.3,11.0,30.08,East,93,11.0,11.0,54,0.00,,,0.00,153,Wunderground v.1.15,2013-02-21 16:40:00,
2013-02-21 10:50:00,25.1,11.2,30.08,NE,52,11.0,18.0,55,0.00,,,0.00,134,Wunderground v.1.15,2013-02-21 16:50:00,
2013-02-21 11:00:00,24.5,13.7,30.07,ESE,102,14.0,14.0,63,0.00,,,0.00,123,Wunderground v.1.15,2013-02-21 17:00:00,
2013-02-21 11:10:00,23.5,15.1,30.08,East,93,13.0,17.0,70,0.00,,,0.00,104,Wunderground v.1.15,2013-02-21 17:10:00,
2013-02-21 11:20:00,22.9,16.5,30.08,East,79,11.0,11.0,76,0.00,,,0.00,107,Wunderground v.1.15,2013-02-21 17:20:00,
2013-02-21 11:30:00,22.7,17.5,30.07,ENE,76,11.0,11.0,80,0.00,,,0.00,111,Wunderground v.1.15,2013-02-21 17:30:00,
2013-02-21 11:40:00,22.9,18.2,30.06,ENE,63,12.0,15.0,82,0.00,,,0.00,139,Wunderground v.1.15,2013-02-21 17:40:00,
2013-02-21 11:50:00,22.7,18.6,30.06,ENE,69,12.0,12.0,84,0.00,,,0.00,111,Wunderground v.1.15,2013-02-21 17:50:00,
2013-02-21 12:00:00,22.5,18.7,30.05,NE,54,11.0,11.0,85,0.00,,,0.00,116,Wunderground v.1.15,2013-02-21 18:00:00,
2013-02-21 12:10:00,22.5,18.7,30.04,ENE,61,12.0,12.0,85,0.00,,,0.00,109,Wunderground v.1.15,2013-02-21 18:10:00,
2013-02-21 12:20:00,22.4,18.8,30.04,ENE,58,12.0,12.0,86,0.00,,,0.00,98,Wunderground v.1.15,2013-02-21 18:20:00,
2013-02-21 12:30:00,22.5,19.2,30.02,NE,52,10.0,12.0,87,0.00,,,0.00,113,Wunderground v.1.15,2013-02-21 18:30:00,
2013-02-21 12:40:00,22.4,19.1,30.02,ENE,77,11.0,13.0,87,0.00,,,0.00,104,Wunderground v.1.15,2013-02-21 18:40:00,
2013-02-21 12:50:00,22.4,19.4,30.02,East,87,12.0,12.0,88,0.00,,,0.00,84,Wunderground v.1.15,2013-02-21 18:50:00,
2013-02-21 13:00:00,22.2,19.2,30.03,ENE,69,11.0,11.0,88,0.00,,,0.00,81,Wunderground v.1.15,2013-02-21 19:00:00,
2013-02-21 13:10:00,22.1,19.1,30.01,ENE,62,12.0,14.0,88,0.00,,,0.00,76,Wunderground v.1.15,2013-02-21 19:10:00,
2013-02-21 13:20:00,22.1,19.1,30.01,ENE,57,10.0,12.0,88,0.00,,,0.00,111,Wunderground v.1.15,2013-02-21 19:20:00,
2013-02-21 13:30:00,22.2,19.2,30.01,ENE,62,11.0,13.0,88,0.00,,,0.00,134,Wunderground v.1.15,2013-02-21 19:30:00,
2013-02-21 13:40:00,22.1,19.1,30.00,NE,45,12.0,22.0,88,0.00,,,0.00,153,Wunderground v.1.15,2013-02-21 19:40:00,
2013-02-21 13:50:00,21.8,18.8,30.00,ENE,69,14.0,18.0,88,0.00,,,0.00,151,Wunderground v.1.15,2013-02-21 19:50:00,
2013-02-21 14:00:00,21.8,18.8,30.00,ENE,63,13.0,13.0,88,0.00,,,0.00,172,Wunderground v.1.15,2013-02-21 20:00:00,
2013-02-21 14:10:00,21.9,18.9,29.98,NE,55,12.0,12.0,88,0.00,,,0.00,186,Wunderground v.1.15,2013-02-21 20:10:00,
2013-02-21 14:20:00,21.9,18.9,29.98,ENE,67,11.0,11.0,88,0.00,,,0.00,162,Wunderground v.1.15,2013-02-21 20:20:00,
2013-02-21 14:30:00,21.9,18.9,29.98,NE,53,11.0,12.0,88,0.00,,,0.00,158,Wunderground v.1.15,2013-02-21 20:30:00,
2013-02-21 14:40:00,22.1,19.1,29.98,NE,49,11.0,16.0,88,0.00,,,0.00,165,Wunderground v.1.15,2013-02-21 20:40:00,
2013-02-21 14:50:00,22.1,19.1,29.98,NE,51,12.0,12.0,88,0.00,,,0.00,146,Wunderground v.1.15,2013-02-21 20:50:00,
2013-02-21 15:00:00,22.2,19.2,29.98,ENE,60,8.0,8.0,88,0.00,,,0.00,153,Wunderground v.1.15,2013-02-21 21:00:00,
2013-02-21 15:10:00,22.2,19.2,29.97,NE,52,8.0,8.0,88,0.00,,,0.00,134,Wunderground v.1.15,2013-02-21 21:10:00,
2013-02-21 15:20:00,22.1,19.1,29.97,NE,53,8.0,10.0,88,0.00,,,0.00,111,Wunderground v.1.15,2013-02-21 21:20:00,
2013-02-21 15:30:00,22.1,19.4,29.97,NE,51,10.0,11.0,89,0.00,,,0.00,144,Wunderground v.1.15,2013-02-21 21:30:00,
2013-02-21 15:40:00,21.9,19.2,29.96,ENE,62,12.0,12.0,89,0.00,,,0.00,100,Wunderground v.1.15,2013-02-21 21:40:00,
2013-02-21 15:50:00,21.9,19.2,29.96,NE,47,11.0,11.0,89,0.00,,,0.00,90,Wunderground v.1.15,2013-02-21 21:50:00,
2013-02-21 16:00:00,21.8,19.1,29.96,NE,53,12.0,12.0,89,0.00,,,0.00,116,Wunderground v.1.15,2013-02-21 22:00:00,
2013-02-21 16:10:00,21.8,19.1,29.96,NE,55,10.0,20.0,89,0.00,,,0.00,125,Wunderground v.1.15,2013-02-21 22:10:00,
2013-02-21 16:20:00,21.6,18.9,29.96,NE,48,14.0,16.0,89,0.00,,,0.00,146,Wunderground v.1.15,2013-02-21 22:20:00,
2013-02-21 16:30:00,21.8,19.1,29.94,ENE,57,12.0,12.0,89,0.00,,,0.00,67,Wunderground v.1.15,2013-02-21 22:30:00,
2013-02-21 16:40:00,21.6,18.9,29.94,NE,53,13.0,13.0,89,0.00,,,0.00,105,Wunderground v.1.15,2013-02-21 22:40:00,
2013-02-21 16:50:00,21.8,19.1,29.94,NE,51,11.0,12.0,89,0.00,,,0.00,65,Wunderground v.1.15,2013-02-21 22:50:00,
2013-02-21 17:00:00,21.6,18.9,29.94,NE,50,12.0,12.0,89,0.00,,,0.00,51,Wunderground v.1.15,2013-02-21 23:00:00,
2013-02-21 17:10:00,21.6,18.9,29.93,ENE,57,12.0,12.0,89,0.00,,,0.00,37,Wunderground v.1.15,2013-02-21 23:10:00,
2013-02-21 17:20:00,21.6,18.9,29.93,ENE,57,12.0,12.0,89,0.00,,,0.00,16,Wunderground v.1.15,2013-02-21 23:20:00,
2013-02-21 17:30:00,21.4,18.7,29.93,ENE,61,13.0,13.0,89,0.00,,,0.00,11,Wunderground v.1.15,2013-02-21 23:30:00,
2013-02-21 17:40:00,21.4,19.7,29.93,NE,38,11.0,15.0,93,0.00,,,0.00,0,Wunderground v.1.15,2013-02-21 23:40:00,
2013-02-21 17:50:00,21.4,18.7,29.93,ENE,59,12.0,13.0,89,0.00,,,0.00,0,Wunderground v.1.15,2013-02-21 23:50:00,
2013-02-21 18:00:00,21.4,18.7,29.93,NE,45,13.0,13.0,89,0.00,,,0.00,0,Wunderground v.1.15,2013-02-22 00:00:00,
2013-02-21 18:10:00,21.4,18.7,29.93,NE,52,9.0,9.0,89,0.00,,,0.00,0,Wunderground v.1.15,2013-02-22 00:10:00,
2013-02-21 18:20:00,21.4,18.7,29.93,NE,54,10.0,10.0,89,0.00,,,0.00,0,Wunderground v.1.15,2013-02-22 00:20:00,
2013-02-21 18:30:00,21.4,18.7,29.93,NE,53,10.0,11.0,89,0.00,,,0.00,0,Wunderground v.1.15,2013-02-22 00:30:00,
2013-02-21 18:40:00,21.4,18.7,29.93,NE,49,10.0,10.0,89,0.00,,,0.00,0,Wunderground v.1.15,2013-02-22 00:40:00,
2013-02-21 18:50:00,21.4,18.7,29.93,NE,44,9.0,12.0,89,0.00,,,0.00,0,Wunderground v.1.15,2013-02-22 00:50:00,
2013-02-21 19:00:00,21.4,18.7,29.93,NE,47,9.0,9.0,89,0.00,,,0.00,0,Wunderground v.1.15,2013-02-22 01:00:00,
2013-02-21 19:10:00,21.6,18.9,29.92,NE,53,8.0,8.0,89,0.00,,,0.00,0,Wunderground v.1.15,2013-02-22 01:10:00,
2013-02-21 19:20:00,21.6,18.9,29.92,NE,48,7.0,7.0,89,0.00,,,0.00,0,Wunderground v.1.15,2013-02-22 01:20:00,
2013-02-21 19:30:00,21.6,18.9,29.92,NE,46,6.0,6.0,89,0.00,,,0.00,0,Wunderground v.1.15,2013-02-22 01:30:00,
2013-02-21 19:40:00,21.8,19.1,29.92,NE,50,8.0,9.0,89,0.00,,,0.00,0,Wunderground v.1.15,2013-02-22 01:40:00,
2013-02-21 19:50:00,21.8,19.1,29.92,ENE,57,9.0,11.0,89,0.00,,,0.00,0,Wunderground v.1.15,2013-02-22 01:50:00,
2013-02-21 20:00:00,21.9,19.2,29.91,NE,48,7.0,10.0,89,0.00,,,0.00,0,Wunderground v.1.15,2013-02-22 02:00:00,
2013-02-21 20:10:00,21.9,19.2,29.91,NE,51,7.0,7.0,89,0.00,,,0.00,0,Wunderground v.1.15,2013-02-22 02:10:00,
2013-02-21 20:20:00,22.1,19.4,29.91,NE,46,7.0,7.0,89,0.00,,,0.00,0,Wunderground v.1.15,2013-02-22 02:20:00,
2013-02-21 20:30:00,22.1,19.6,29.91,ENE,57,6.0,6.0,90,0.00,,,0.00,0,Wunderground v.1.15,2013-02-22 02:30:00,
2013-02-21 20:40:00,22.2,19.7,29.91,NE,45,7.0,8.0,90,0.00,,,0.00,0,Wunderground v.1.15,2013-02-22 02:40:00,
2013-02-21 20:50:00,22.4,19.9,29.91,NE,44,7.0,7.0,90,0.00,,,0.00,0,Wunderground v.1.15,2013-02-22 02:50:00,
2013-02-21 21:00:00,22.4,19.9,29.90,ENE,61,6.0,8.0,90,0.00,,,0.00,0,Wunderground v.1.15,2013-02-22 03:00:00,
2013-02-21 21:10:00,22.4,19.9,29.90,ENE,57,6.0,7.0,90,0.00,,,0.00,0,Wunderground v.1.15,2013-02-22 03:10:00,
2013-02-21 21:20:00,22.5,20.0,29.90,NE,48,5.0,8.0,90,0.00,,,0.00,0,Wunderground v.1.15,2013-02-22 03:20:00,
2013-02-21 21:30:00,22.5,20.0,29.90,NE,54,6.0,6.0,90,0.00,,,0.00,0,Wunderground v.1.15,2013-02-22 03:30:00,
2013-02-21 21:40:00,22.7,20.2,29.89,NE,48,5.0,6.0,90,0.00,,,0.00,0,Wunderground v.1.15,2013-02-22 03:40:00,
2013-02-21 21:50:00,22.7,20.2,29.89,NNE,32,5.0,9.0,90,0.00,,,0.00,0,Wunderground v.1.15,2013-02-22 03:50:00,
2013-02-21 22:00:00,22.7,20.2,29.89,NE,37,5.0,5.0,90,0.00,,,0.00,0,Wunderground v.1.15,2013-02-22 04:00:00,
2013-02-21 22:10:00,22.9,20.4,29.89,NE,39,4.0,5.0,90,0.00,,,0.00,0,Wunderground v.1.15,2013-02-22 04:10:00,
2013-02-21 22:20:00,22.9,20.4,29.89,NE,53,5.0,5.0,90,0.00,,,0.00,0,Wunderground v.1.15,2013-02-22 04:20:00,
2013-02-21 22:30:00,22.9,20.4,29.89,NE,42,3.0,3.0,90,0.00,,,0.00,0,Wunderground v.1.15,2013-02-22 04:30:00,
2013-02-21 22:40:00,22.9,20.4,29.89,NNE,24,3.0,3.0,90,0.00,,,0.00,0,Wunderground v.1.15,2013-02-22 04:40:00,
2013-02-21 22:50:00,22.9,20.4,29.89,NNE,24,0.0,2.0,90,0.00,,,0.00,0,Wunderground v.1.15,2013-02-22 04:50:00,
2013-02-21 23:00:00,22.9,20.1,29.88,NE,38,1.0,3.0,89,0.00,,,0.00,0,Wunderground v.1.15,2013-02-22 05:00:00,
2013-02-21 23:10:00,22.9,20.1,29.88,NE,40,2.0,5.0,89,0.00,,,0.00,0,Wunderground v.1.15,2013-02-22 05:10:00,
2013-02-21 23:20:00,22.9,20.1,29.88,NNE,23,4.0,5.0,89,0.00,,,0.00,0,Wunderground v.1.15,2013-02-22 05:20:00,
2013-02-21 23:30:00,22.5,19.7,29.88,NE,47,6.0,11.0,89,0.00,,,0.00,0,Wunderground v.1.15,2013-02-22 05:30:00,
2013-02-21 23:40:00,22.4,19.6,29.88,NE,47,6.0,6.0,89,0.00,,,0.00,0,Wunderground v.1.15,2013-02-22 05:40:00,
2013-02-21 23:50:00,22.2,19.5,29.88,NE,35,4.0,4.0,89,0.00,,,0.00,0,Wunderground v.1.15,2013-02-22 05:50:00,